When you browse on this site, cookies collect data to enhance your experience and personalize the content and advertising you see.
Visit our Privacy Policy to learn more. By continuing to use the site, you agree to this use of cookies and data.
  • In Romania
  • List of Countries
  • For 7 days
  • Water Temperature
  • Weather Map
  • Weather Widgets
  • user-avatar
    Login

    Hourly Weather Gabú

    Today, 21 August, Wednesday

    Time Temperature Precipitation Wind Pressure Humidity
    00:00 +26°C° 0 mm 2 mps 753 mmHg 97%
    01:00 +25°C° 0 mm 2 mps 753 mmHg 98%
    02:00 +25°C° 0 mm 2 mps 752 mmHg 98%
    03:00 +25°C° 0 mm 2 mps 752 mmHg 98%
    04:00 +25°C° 0 mm 1 mps 752 mmHg 98%
    05:00 +25°C° 0 mm 1 mps 752 mmHg 99%
    06:00 +26°C° 0 mm 1 mps 753 mmHg 96%
    07:00 +26°C° 0 mm 1 mps 753 mmHg 94%
    08:00 +27°C° 0 mm 2 mps 753 mmHg 92%
    09:00 +28°C° 0 mm 1 mps 753 mmHg 86%
    10:00 +30°C° 0 mm 1 mps 753 mmHg 81%
    11:00 +31°C° 0 mm 1 mps 753 mmHg 75%
    12:00 +31°C° 1 mm 1 mps 752 mmHg 76%
    13:00 +30°C° 1 mm 0 mps 751 mmHg 76%
    14:00 +30°C° 1 mm 0 mps 751 mmHg 77%
    15:00 +29°C° 2.5 mm 0 mps 750 mmHg 81%
    16:00 +30°C° 2.5 mm 1 mps 750 mmHg 85%
    17:00 +29°C° 2.5 mm 1 mps 750 mmHg 89%
    18:00 +28°C° 2.9 mm 1 mps 751 mmHg 91%
    19:00 +27°C° 2.9 mm 1 mps 751 mmHg 93%
    20:00 +26°C° 2.9 mm 1 mps 752 mmHg 95%
    21:00 +26°C° 3.4 mm 1 mps 752 mmHg 95%
    22:00 +25°C° 3.4 mm 2 mps 752 mmHg 96%
    23:00 +25°C° 3.4 mm 2 mps 752 mmHg 97%

    Tomorrow, 22 August, Thursday

    Time Temperature Precipitation Wind Pressure Humidity
    00:00 +25°C° 0.5 mm 2 mps 752 mmHg 97%
    01:00 +25°C° 0.5 mm 1 mps 751 mmHg 97%
    02:00 +24°C° 0.5 mm 1 mps 751 mmHg 97%
    03:00 +24°C° 0.2 mm 1 mps 751 mmHg 97%
    04:00 +24°C° 0.2 mm 1 mps 751 mmHg 97%
    05:00 +24°C° 0.2 mm 1 mps 751 mmHg 97%
    06:00 +24°C° 5.9 mm 2 mps 751 mmHg 97%
    07:00 +23°C° 5.9 mm 4 mps 752 mmHg 97%
    08:00 +23°C° 5.9 mm 5 mps 752 mmHg 96%
    09:00 +25°C° 1.3 mm 5 mps 752 mmHg 96%
    10:00 +25°C° 1.3 mm 5 mps 752 mmHg 95%
    11:00 +25°C° 1.3 mm 5 mps 753 mmHg 95%
    12:00 +26°C° 0.4 mm 5 mps 752 mmHg 93%
    13:00 +26°C° 0.4 mm 5 mps 752 mmHg 91%
    14:00 +27°C° 0.4 mm 5 mps 752 mmHg 89%
    15:00 +27°C° 0.3 mm 4 mps 752 mmHg 90%
    16:00 +27°C° 0.3 mm 4 mps 752 mmHg 90%
    17:00 +26°C° 0.3 mm 4 mps 752 mmHg 91%
    18:00 +26°C° 0.1 mm 4 mps 752 mmHg 92%
    19:00 +25°C° 0.1 mm 4 mps 753 mmHg 93%
    20:00 +25°C° 0.1 mm 3 mps 754 mmHg 94%
    21:00 +25°C° 0 mm 3 mps 754 mmHg 94%
    22:00 +25°C° 0 mm 3 mps 754 mmHg 94%
    23:00 +25°C° 0 mm 3 mps 754 mmHg 94%

    Day after tomorrow, 23 August, Friday

    Time Temperature Precipitation Wind Pressure Humidity
    00:00 +25°C° 0 mm 3 mps 754 mmHg 95%
    01:00 +24°C° 0 mm 3 mps 754 mmHg 96%
    02:00 +24°C° 0 mm 3 mps 753 mmHg 96%
    03:00 +24°C° 0.1 mm 3 mps 753 mmHg 96%
    04:00 +25°C° 0.1 mm 3 mps 753 mmHg 96%
    05:00 +25°C° 0.1 mm 3 mps 753 mmHg 96%
    06:00 +25°C° 0 mm 3 mps 754 mmHg 94%
    07:00 +26°C° 0 mm 3 mps 754 mmHg 92%
    08:00 +27°C° 0 mm 3 mps 755 mmHg 90%
    09:00 +28°C° 0.2 mm 3 mps 755 mmHg 86%
    10:00 +29°C° 0.2 mm 3 mps 754 mmHg 82%
    11:00 +30°C° 0.2 mm 3 mps 754 mmHg 78%
    12:00 +30°C° 1.4 mm 3 mps 754 mmHg 79%
    13:00 +30°C° 1.4 mm 4 mps 753 mmHg 81%
    14:00 +30°C° 1.4 mm 4 mps 753 mmHg 82%
    15:00 +29°C° 1.7 mm 4 mps 753 mmHg 86%
    16:00 +28°C° 1.7 mm 3 mps 753 mmHg 89%
    17:00 +27°C° 1.7 mm 3 mps 753 mmHg 92%
    18:00 +26°C° 0 mm 3 mps 753 mmHg 93%
    19:00 +26°C° 0 mm 3 mps 754 mmHg 95%
    20:00 +25°C° 0 mm 2 mps 755 mmHg 96%
    21:00 +25°C° 0 mm 2 mps 755 mmHg 96%
    22:00 +25°C° 0 mm 2 mps 755 mmHg 97%
    23:00 +25°C° 0 mm 2 mps 755 mmHg 97%

    24 August, Saturday

    Time Temperature Precipitation Wind Pressure Humidity
    00:00 +25°C° 0 mm 2 mps 755 mmHg 98%
    01:00 +24°C° 0 mm 2 mps 754 mmHg 98%
    02:00 +24°C° 0 mm 2 mps 754 mmHg 98%
    03:00 +24°C° 0.2 mm 1 mps 754 mmHg 98%
    04:00 +24°C° 0.2 mm 1 mps 754 mmHg 98%
    05:00 +24°C° 0.2 mm 1 mps 754 mmHg 98%
    06:00 +25°C° 0.3 mm 1 mps 754 mmHg 96%
    07:00 +26°C° 0.3 mm 1 mps 754 mmHg 94%
    08:00 +27°C° 0.3 mm 2 mps 755 mmHg 92%
    09:00 +28°C° 0.9 mm 2 mps 755 mmHg 89%
    10:00 +29°C° 0.9 mm 2 mps 754 mmHg 86%
    11:00 +29°C° 0.9 mm 2 mps 754 mmHg 83%
    12:00 +29°C° 1.9 mm 2 mps 754 mmHg 84%
    13:00 +29°C° 1.9 mm 2 mps 753 mmHg 85%
    14:00 +29°C° 1.9 mm 2 mps 753 mmHg 86%
    15:00 +28°C° 2.8 mm 2 mps 753 mmHg 89%
    16:00 +28°C° 2.8 mm 2 mps 752 mmHg 91%
    17:00 +27°C° 2.8 mm 3 mps 752 mmHg 94%
    18:00 +26°C° 5.6 mm 2 mps 753 mmHg 95%
    19:00 +26°C° 5.6 mm 2 mps 753 mmHg 97%
    20:00 +25°C° 5.6 mm 1 mps 754 mmHg 98%
    21:00 +25°C° 9.4 mm 1 mps 754 mmHg 98%
    22:00 +25°C° 9.4 mm 2 mps 754 mmHg 98%
    23:00 +25°C° 9.4 mm 2 mps 754 mmHg 98%

    25 August, Sunday

    Time Temperature Precipitation Wind Pressure Humidity
    00:00 +25°C° 5.9 mm 2 mps 754 mmHg 98%
    01:00 +25°C° 5.9 mm 2 mps 753 mmHg 99%
    02:00 +25°C° 5.9 mm 2 mps 753 mmHg 99%
    03:00 +25°C° 3.7 mm 2 mps 753 mmHg 99%
    04:00 +25°C° 3.7 mm 2 mps 752 mmHg 98%
    05:00 +25°C° 3.7 mm 2 mps 752 mmHg 98%
    06:00 +25°C° 2.6 mm 2 mps 753 mmHg 98%
    07:00 +25°C° 2.6 mm 2 mps 753 mmHg 97%
    08:00 +25°C° 2.6 mm 2 mps 753 mmHg 97%
    09:00 +26°C° 1.2 mm 2 mps 753 mmHg 95%
    10:00 +27°C° 1.2 mm 2 mps 753 mmHg 93%
    11:00 +27°C° 1.2 mm 2 mps 753 mmHg 92%
    12:00 +27°C° 1.4 mm 1 mps 753 mmHg 93%
    13:00 +26°C° 1.4 mm 1 mps 752 mmHg 94%
    14:00 +26°C° 1.4 mm 1 mps 752 mmHg 95%
    15:00 +25°C° 0.6 mm 2 mps 752 mmHg 96%
    16:00 +25°C° 0.6 mm 2 mps 752 mmHg 96%
    17:00 +25°C° 0.6 mm 2 mps 752 mmHg 96%
    18:00 +24°C° 0.2 mm 2 mps 753 mmHg 96%
    19:00 +24°C° 0.2 mm 2 mps 753 mmHg 97%
    20:00 +24°C° 0.2 mm 1 mps 754 mmHg 97%
    21:00 +24°C° 0.4 mm 2 mps 754 mmHg 97%
    22:00 +24°C° 0.4 mm 2 mps 754 mmHg 98%
    23:00 +24°C° 0.4 mm 2 mps 754 mmHg 98%

    26 August, Monday

    Time Temperature Precipitation Wind Pressure Humidity
    00:00 +24°C° 0.5 mm 2 mps 754 mmHg 98%
    01:00 +22°C° 0.5 mm 3 mps 753 mmHg 98%
    02:00 +22°C° 0.5 mm 3 mps 753 mmHg 98%
    03:00 +22°C° 0.6 mm 3 mps 753 mmHg 98%
    04:00 +23°C° 0.6 mm 2 mps 753 mmHg 98%
    05:00 +23°C° 0.6 mm 2 mps 753 mmHg 98%
    06:00 +23°C° 0 mm 2 mps 754 mmHg 97%
    07:00 +23°C° 0 mm 1 mps 754 mmHg 96%
    08:00 +24°C° 0 mm 1 mps 754 mmHg 95%
    09:00 +24°C° 0 mm 1 mps 754 mmHg 91%
    10:00 +25°C° 0 mm 1 mps 754 mmHg 88%
    11:00 +26°C° 0 mm 1 mps 754 mmHg 84%
    12:00 +27°C° 0 mm 2 mps 754 mmHg 82%
    13:00 +27°C° 0 mm 2 mps 753 mmHg 81%
    14:00 +27°C° 0 mm 2 mps 752 mmHg 79%
    15:00 +27°C° 0 mm 2 mps 752 mmHg 81%
    16:00 +27°C° 0 mm 2 mps 752 mmHg 82%
    17:00 +27°C° 0 mm 2 mps 752 mmHg 83%
    18:00 +26°C° 0 mm 2 mps 753 mmHg 86%
    19:00 +25°C° 0 mm 2 mps 753 mmHg 89%
    20:00 +25°C° 0 mm 2 mps 754 mmHg 92%
    21:00 +24°C° 0 mm 2 mps 754 mmHg 93%
    22:00 +24°C° 0 mm 2 mps 754 mmHg 94%
    23:00 +23°C° 0 mm 2 mps 755 mmHg 95%
    Show more